Zurück zum Katalog

USA 466

AktivMilitärVLEO
NORAD 62535·PAYLOAD·🇺🇸 United States

Gestartet Jan 10, 2025 von Vandenberg Space Force Base

Loading…

Nächste Überflüge (nächste 24 Stunden)

TLE

VeraltetSource: Mike McCants

Epoche: Aug 27, 2026, 01:10 UTC

1 62535U 25005D   26239.04867314 0.00000000  00000-0  00000-0 0    01
2 62535  70.0140 223.8405 0002000 199.1802 160.8198 14.96713250    02

Verfolge USA 466 in Echtzeit mit AllMySat

Download on the App Store